ATHENA-FIDUS

Last updated on Sun Oct 19 2025 00:02:49 GMT+0000 (Coordinated Universal Time)

1 39509U 14006B 25291.20442902 .00000147 00000+0 00000+0 0 9999 2 39509 0.0170 224.8531 0001550 359.6514 273.8407 1.00271611 42663
UTC large
Height (km)
Speed (km/s)
/
Latitude / Longitude
Inclination (degrees)
Orbital Period (minutes)
Azimuth
Elevation
Range (km)
Doppler Factor

Next 0 passes for location: London (51.5072 / 0.1276)

Sorry there are no passes over London.